sat.trackr.live / text

‹ back to catalog

ACS3

NORAD 59588 · 2024-077B

PAYLOAD ACTIVE UNKNOWN

§ Identity

Operator
Country
US
Launch date
2024-04-23
Launch site
RLLB
Launch vehicle
Mass (kg)
RCS (m²)

External: N2YO · Heavens-Above · Gunter

§ Orbital elements

Epoch: 2026-09-22T17:53:21.691680Z

Period
103.03 min
Inclination
97.2252°
Eccentricity
0.0060974
Mean motion
13.97700173 rev/d
Perigee alt
857.4 km
Apogee alt
946.2 km
Semi-major
7,279.9 km
B*
6.5717e-4
RAAN
163.2815°
Arg perigee
331.3593°
Mean anomaly
28.4231°
Rev number
12,165

§ Raw data

ACS31 59588U 24077B   26265.74538995  .00000912  00000+0  65717-3 0  99962 59588  97.2252 163.2815 0060974 331.3593  28.4231 13.97700173121656

JSON: /api/v1/satellites/59588 · /tle

For live sub-satellite position, see the globe view (requires WebGL).

§ Visibility from observer

Set your observer location to see the next 7 days of passes ≥ 10°. The values pass through the URL so the page stays shareable.

No JS? Fill the form by hand. The geolocation button needs JavaScript.

§ Radio — SatNOGS DB

ModeDescriptionDownlinkUplink
FM Mode S - NanoAvionics 2.268 GHz
GMSK Mode U - NanoAvionics 401.500 MHz

2 transmitters · refreshed weekly from db.satnogs.org